| time (UTC) | temp F | wind direction | speed MPH | gust MPH | rain 1hr in | rain 24hr in | rain mn in | humidity % | barometer mb |
| 20260504182712 | 54 | 117 | 0.0 | 2.0 | 0.00 | 0.04 | 0.01 | 66 | 1020.1 |
| 20260504181813 | 54 | 116 | 0.0 | 2.0 | 0.00 | 0.04 | 0.01 | 66 | 1020.0 |
| 20260504180913 | 54 | 116 | 0.0 | 2.0 | 0.00 | 0.04 | 0.01 | 66 | 1020.0 |
| 20260504180012 | 54 | 117 | 0.0 | 2.0 | 0.00 | 0.04 | 0.01 | 66 | 1019.9 |
| 20260504175112 | 54 | 116 | 0.0 | 2.0 | 0.00 | 0.04 | 0.01 | 66 | 1020.0 |
| 20260504172413 | 54 | 83 | 2.0 | 3.0 | 0.01 | 0.04 | 0.01 | 66 | 1020.1 |
| 20260504171512 | 54 | 104 | 2.0 | 3.0 | 0.01 | 0.04 | 0.01 | 66 | 1020.1 |
| 20260504160312 | 54 | 139 | 1.0 | 4.0 | 0.00 | 0.04 | 0.00 | 66 | 1020.1 |
| 20260504150912 | 54 | 0 | 0.0 | 0.0 | 0.00 | 0.07 | 0.00 | 66 | 1020.1 |
| 20260504140611 | 54 | 0 | 0.0 | 0.0 | 0.00 | 0.09 | 0.09 | 66 | 1019.7 |
| 20260504130312 | 56 | 0 | 0.0 | 0.0 | 0.00 | 0.09 | 0.09 | 66 | 1019.5 |
| 20260504110612 | 58 | 187 | 3.0 | 9.0 | 0.03 | 0.09 | 0.09 | 65 | 1018.7 |
| 20260504100311 | 59 | 186 | 0.0 | 2.0 | 0.00 | 0.17 | 0.06 | 64 | 1017.9 |
| 20260504081510 | 61 | 258 | 8.0 | 15.0 | 0.00 | 0.17 | 0.06 | 54 | 1016.2 |
| 20260504070311 | 63 | 251 | 10.0 | 19.0 | 0.00 | 0.17 | 0.06 | 52 | 1015.6 |
| 20260504050611 | 67 | 236 | 9.0 | 17.0 | 0.00 | 0.19 | 0.06 | 47 | 1014.5 |
| 20260504045710 | 67 | 248 | 10.0 | 17.0 | 0.00 | 0.19 | 0.06 | 48 | 1014.3 |
| 20260504043010 | 67 | 253 | 12.0 | 20.0 | 0.00 | 0.19 | 0.06 | 47 | 1014.2 |
| 20260504040311 | 67 | 251 | 13.0 | 21.0 | 0.00 | 0.19 | 0.06 | 47 | 1014.1 |
| 20260504035411 | 67 | 244 | 12.0 | 19.0 | 0.00 | 0.19 | 0.06 | 49 | 1014.2 |
| 20260504034510 | 68 | 247 | 12.0 | 22.0 | 0.00 | 0.19 | 0.06 | 46 | 1014.2 |
| 20260504033610 | 69 | 242 | 12.0 | 22.0 | 0.00 | 0.19 | 0.06 | 45 | 1014.1 |
| 20260504032710 | 68 | 239 | 11.0 | 21.0 | 0.00 | 0.19 | 0.06 | 48 | 1014.1 |
| 20260504031811 | 67 | 242 | 11.0 | 20.0 | 0.00 | 0.19 | 0.06 | 46 | 1014.2 |
| 20260504030910 | 68 | 247 | 12.0 | 20.0 | 0.00 | 0.19 | 0.06 | 47 | 1014.2 |
| 20260504030010 | 71 | 248 | 10.0 | 21.0 | 0.00 | 0.19 | 0.06 | 48 | 1014.3 |
| 20260504024210 | 65 | 247 | 9.0 | 18.0 | 0.00 | 0.19 | 0.06 | 53 | 1014.4 |
| 20260504023310 | 67 | 259 | 10.0 | 17.0 | 0.00 | 0.19 | 0.06 | 49 | 1014.4 |
| 20260504022410 | 67 | 241 | 10.0 | 20.0 | 0.00 | 0.19 | 0.06 | 48 | 1014.4 |
| 20260504021510 | 67 | 240 | 11.0 | 20.0 | 0.00 | 0.19 | 0.06 | 51 | 1014.5 |
| 20260504020610 | 65 | 237 | 11.0 | 18.0 | 0.00 | 0.19 | 0.06 | 53 | 1014.5 |
| 20260504014810 | 67 | 260 | 13.0 | 21.0 | 0.00 | 0.19 | 0.06 | 51 | 1014.4 |
| 20260504013010 | 65 | 245 | 11.0 | 20.0 | 0.00 | 0.19 | 0.06 | 55 | 1014.4 |
| 20260504011210 | 64 | 249 | 11.0 | 19.0 | 0.00 | 0.19 | 0.06 | 53 | 1014.2 |
| 20260504005410 | 64 | 247 | 11.0 | 19.0 | 0.00 | 0.19 | 0.06 | 54 | 1014.1 |
| 20260504004510 | 65 | 253 | 9.0 | 19.0 | 0.00 | 0.19 | 0.06 | 58 | 1013.9 |
| 20260504003609 | 61 | 244 | 7.0 | 15.0 | 0.00 | 0.19 | 0.06 | 60 | 1013.9 |
| 20260504002710 | 63 | 264 | 8.0 | 14.0 | 0.00 | 0.19 | 0.06 | 60 | 1013.8 |
| 20260504001810 | 62 | 260 | 9.0 | 15.0 | 0.00 | 0.19 | 0.06 | 61 | 1013.7 |
| 20260504000910 | 62 | 261 | 10.0 | 18.0 | 0.00 | 0.19 | 0.06 | 59 | 1013.6 |
| 20260504000011 | 65 | 270 | 8.0 | 17.0 | 0.00 | 0.19 | 0.06 | 57 | 1013.5 |
| 20260503235110 | 64 | 269 | 10.0 | 18.0 | 0.00 | 0.19 | 0.06 | 59 | 1013.4 |
| 20260503234211 | 62 | 279 | 9.0 | 15.0 | 0.00 | 0.19 | 0.06 | 61 | 1013.4 |
| 20260503233310 | 61 | 275 | 10.0 | 17.0 | 0.00 | 0.19 | 0.06 | 62 | 1013.3 |
| 20260503231510 | 60 | 279 | 8.0 | 14.0 | 0.00 | 0.19 | 0.06 | 64 | 1013.0 |
| 20260503225709 | 59 | 277 | 7.0 | 11.0 | 0.00 | 0.19 | 0.06 | 65 | 1012.7 |
| 20260503224810 | 58 | 279 | 5.0 | 10.0 | 0.00 | 0.19 | 0.06 | 65 | 1012.6 |
| 20260503223910 | 58 | 279 | 5.0 | 9.0 | 0.00 | 0.19 | 0.06 | 65 | 1012.6 |
| 20260503223010 | 57 | 280 | 5.0 | 10.0 | 0.00 | 0.19 | 0.06 | 64 | 1012.4 |
| 20260503222109 | 58 | 278 | 8.0 | 13.0 | 0.00 | 0.19 | 0.06 | 64 | 1012.4 |
| 20260503221210 | 58 | 279 | 8.0 | 16.0 | 0.00 | 0.19 | 0.06 | 64 | 1012.2 |
| 20260503214510 | 58 | 269 | 8.0 | 15.0 | 0.00 | 0.19 | 0.06 | 64 | 1011.8 |
| 20260503213610 | 58 | 272 | 8.0 | 15.0 | 0.00 | 0.19 | 0.06 | 64 | 1011.6 |
| 20260503212710 | 58 | 275 | 7.0 | 15.0 | 0.00 | 0.19 | 0.06 | 64 | 1011.6 |
| 20260503211810 | 58 | 285 | 8.0 | 17.0 | 0.00 | 0.19 | 0.06 | 64 | 1011.5 |
| 20260503210910 | 58 | 279 | 9.0 | 17.0 | 0.00 | 0.19 | 0.06 | 64 | 1011.4 |
| 20260503210009 | 58 | 284 | 9.0 | 15.0 | 0.00 | 0.19 | 0.06 | 64 | 1011.4 |
| 20260503203309 | 58 | 282 | 9.0 | 17.0 | 0.00 | 0.19 | 0.06 | 64 | 1011.1 |
| 20260503202410 | 58 | 290 | 9.0 | 17.0 | 0.00 | 0.19 | 0.06 | 64 | 1011.0 |
| 20260503200609 | 57 | 281 | 10.0 | 17.0 | 0.00 | 0.19 | 0.06 | 64 | 1010.7 |
| 20260503195709 | 58 | 293 | 7.0 | 15.0 | 0.00 | 0.19 | 0.06 | 64 | 1010.7 |
| 20260503194809 | 58 | 290 | 7.0 | 14.0 | 0.00 | 0.19 | 0.06 | 64 | 1010.8 |
| 20260503193909 | 58 | 289 | 7.0 | 15.0 | 0.00 | 0.19 | 0.06 | 64 | 1010.7 |
| 20260503193010 | 58 | 284 | 8.0 | 15.0 | 0.00 | 0.19 | 0.06 | 64 | 1010.7 |
| 20260503192109 | 58 | 279 | 10.0 | 20.0 | 0.00 | 0.19 | 0.06 | 64 | 1010.7 |
| 20260503191209 | 58 | 280 | 8.0 | 15.0 | 0.00 | 0.19 | 0.06 | 64 | 1010.5 |
| 20260503190309 | 58 | 274 | 10.0 | 21.0 | 0.00 | 0.19 | 0.06 | 64 | 1010.5 |
| 20260503184509 | 57 | 279 | 12.0 | 23.0 | 0.00 | 0.19 | 0.06 | 65 | 1010.4 |